Hourly Data Report for May 15, 2012

All times are specified in Local Standard Time (LST). Add 1 hour to adjust for Daylight Saving Time where and when it is observed.

GANDER INTL A
NEWFOUNDLAND

48°56'13.000" N
54°34'05.000" W
151.20 m
8401703
71803
YQX

Download Data

Hourly Data (May 2012)
Hourly Data Report for May 15, 2012
Temp Definition
°C
Dew Point Temp Definition
°C
Rel Hum Definition
%
Wind Dir Definition
10's deg

Wind Spd Definition
km/h
Visibility Definition
km
Stn Press Definition
kPa
Hmdx Definition


Wind Chill Definition


Weather Definition


TIME
00:30 Legend Double Dagger 9.5 3.5 66 24 20 10.0 100.85     LegendNANA
01:30 Legend Double Dagger 9.0 3.6 69 23 20 10.0 100.87     LegendNANA
02:30 Legend Double Dagger 8.4 3.5 71 24 19 10.0 100.87     Mainly Clear
03:30 Legend Double Dagger 7.9 3.6 74 22 14 10.0 100.86     LegendNANA
04:30 Legend Double Dagger 7.2 3.5 77 21 10 10.0 100.85     LegendNANA
05:30 Legend Double Dagger 8.1 4.0 75 17 6 10.0 100.85     Mostly Cloudy
06:30 Legend Double Dagger 8.7 5.3 79 16 10 10.0 100.88     LegendNANA
07:30 Legend Double Dagger 10.0 4.8 70 17 22 10.0 100.88     LegendNANA
08:30 Legend Double Dagger 11.2 5.6 68 18 23 10.0 100.88     Mostly Cloudy
09:30 Legend Double Dagger 13.3 6.9 65 19 20 10.0 100.84     LegendNANA
10:30 Legend Double Dagger 17.9 9.4 57 19 21 10.0 100.80     LegendNANA
11:30 Legend Double Dagger 19.0 10.1 56 20 24 10.0 100.77     Mainly Clear
12:30 Legend Double Dagger 19.6 10.7 56 20 30 10.0 100.75     LegendNANA
13:30 Legend Double Dagger 21.1 11.3 53 19 25 10.0 100.69     LegendNANA
14:30 Legend Double Dagger 19.5 11.1 58 20 26 10.0 100.67     Mostly Cloudy
15:30 Legend Double Dagger 18.5 10.9 61 21 31 10.0 100.66     LegendNANA
16:30 Legend Double Dagger 17.8 10.8 63 21 25 10.0 100.67     LegendNANA
17:30 Legend Double Dagger 16.0 9.9 67 19 20 10.0 100.66     Mainly Clear
18:30 Legend Double Dagger 15.7 10.5 71 20 21 10.0 100.68     LegendNANA
19:30 Legend Double Dagger 14.3 10.4 77 22 14 10.0 100.72     LegendNANA
20:30 Legend Double Dagger 12.5 9.7 83 20 12 10.0 100.73     Mostly Cloudy
21:30 Legend Double Dagger 11.8 9.4 85 21 14 10.0 100.73     LegendNANA
22:30 Legend Double Dagger 11.6 9.5 87 22 23 10.0 100.72     LegendNANA
23:30 Legend Double Dagger 12.1 9.7 85 24 22 10.0 100.71     Mostly Cloudy

Notes on Data Quality.

Legend

  • E = Estimated
  • M = Missing
  • NA = Not Available
  • ‡ = Partner data that is not subject to review by the National Climate Archives
Date modified: